Terminal Aerodrome Forecast
Issued by NWS

Home | Current Version | Previous Version | Text Only | Print | Product List | Glossary On
Versions: 1 2 3 4 5 6 7 8 9 10 11 12 13 14 15 16 17 18 19 20 21
000
FTUS41 KPBZ 260400 AAA
TAFLBE
TAF AMD
KLBE 260419Z 2604/2624 04006KT 3/4SM -SN OVC001
     FM261300 09006KT 2SM -SN BR OVC006
     FM262200 07004KT 3SM -SHSN OVC010=

USA.gov is the U.S. government's official web portal to all federal, state and local government web resources and services.